Lapse_Rate
4.3 4.0 3.7 3.6 3.6 3.6 3.4 3.2 3.1 2.9 2.8 2.8 2.7 2.5 2.6 2.8 2.7 2.5 2.5 2.7 2.8 2.8 3.0 4.9 4.8 5.0 5.5 6.1 5.9 5.7 4.1 3.6 4.7 6.1 5.8 7.0 6.6 6.0 6.5 6.2 5.8 6.5 6.5 6.3 6.4 6.3 5.9
4.6 4.1 4.1 3.9 3.5 3.4 3.6 3.5 3.1 3.1 2.9 2.7 2.6 2.5 2.3 2.3 2.4 2.3 2.2 2.7 2.7 2.7 4.0 4.9 5.1 4.8 5.7 6.6 5.2 6.2 7.1 5.1 6.2 5.9 6.2 6.9 6.8 6.5 6.0 6.0 6.3 6.2 6.4 6.4 6.4 6.3 6.4
6.9 6.4 5.0 4.3 4.0 3.9 3.8 3.8 3.5 3.1 2.9 2.9 2.7 2.4 2.4 2.0 2.1 2.4 2.5 2.6 2.7 2.6 4.7 4.7 5.2 5.6 6.9 5.8 5.0 5.7 6.2 7.4 7.3 6.8 6.6 7.3 7.0 6.3 5.8 6.5 6.4 6.2 6.5 6.5 6.3 5.7 6.4
7.1 6.4 6.3 5.0 4.6 4.3 4.2 4.1 3.7 3.3 3.0 2.8 2.8 2.5 2.4 2.2 1.8 2.5 2.6 2.8 3.4 3.6 4.8 5.2 5.0 5.6 6.2 5.3 5.5 4.8 4.1 4.7 7.1 7.8 7.6 7.5 7.2 6.4 6.4 6.0 6.5 6.5 6.5 6.5 6.5 6.4 6.3
6.8 6.0 5.5 5.0 4.7 4.7 4.2 4.0 3.6 3.4 3.2 3.0 2.8 2.8 2.5 2.4 2.1 2.8 3.1 3.4 4.0 5.0 4.5 4.8 4.5 5.8 6.7 7.4 5.6 5.6 7.1 7.8 8.1 7.8 7.4 8.7 7.5 6.2 6.0 6.5 6.5 6.5 6.5 6.5 6.5 6.4 6.5
7.3 6.7 6.6 5.9 5.5 4.7 4.6 4.4 3.9 3.7 3.6 3.2 2.9 2.9 2.8 3.0 2.9 3.1 3.1 3.8 3.8 3.8 4.3 5.6 6.4 7.1 6.1 5.2 7.8 8.0 7.2 8.0 7.8 7.3 7.1 6.4 5.4 6.5 6.5 6.5 6.5 6.5 6.5 6.5 6.5 6.5 6.5
7.9 7.8 7.6 7.3 6.3 5.6 5.3 5.0 4.6 4.3 3.7 3.2 3.0 3.0 3.0 3.5 3.7 4.0 4.2 4.0 5.4 5.7 5.6 5.0 5.5 7.2 7.2 7.3 8.1 7.8 8.1 7.8 7.4 7.1 6.5 5.7 6.5 6.5 6.5 6.5 6.5 6.5 6.5 6.5 6.5 6.5 6.5
7.9 7.9 7.9 7.6 7.1 6.4 6.0 5.8 5.4 4.5 3.8 3.2 2.9 3.0 3.1 3.9 4.1 3.8 6.0 5.5 6.8 7.1 6.2 4.4 6.2 7.0 6.7 5.5 7.2 7.4 7.7 6.5 6.1 6.5 6.4 6.5 6.5 6.5 6.5 6.5 6.5 6.5 6.5 6.5 6.5 6.5 6.5
7.1 7.4 7.7 7.6 7.4 7.1 6.6 6.1 5.8 4.8 3.7 2.9 2.9 2.9 3.2 3.9 4.4 4.9 5.6 6.4 7.4 7.2 5.9 7.1 4.5 5.3 7.4 7.5 7.1 7.0 7.4 6.8 6.5 6.5 6.5 6.5 6.5 6.5 6.5 6.5 6.5 6.5 6.5 6.5 6.5 6.5 6.5
7.5 7.3 7.3 7.6 7.5 7.4 6.8 6.5 6.2 5.0 3.9 3.1 2.7 3.0 3.6 4.6 4.3 4.9 6.1 6.7 7.6 7.1 6.5 6.5 6.7 7.0 7.7 7.7 6.6 7.0 8.2 6.8 6.4 6.5 6.5 6.5 6.5 6.5 6.5 6.5 6.5 6.5 6.5 6.5 6.5 6.5 6.5
7.7 7.7 7.4 7.2 7.3 7.3 6.9 6.5 6.4 5.6 4.1 2.7 2.3 2.7 4.0 5.3 4.4 5.6 6.4 7.2 6.5 6.4 6.5 6.5 6.6 7.7 7.2 6.8 6.7 6.7 7.4 6.6 6.5 6.5 6.5 6.5 6.5 6.5 6.5 6.5 6.5 6.5 6.5 6.5 6.5 6.5 6.5
7.6 7.4 7.6 7.3 7.1 7.2 7.0 6.7 6.4 5.7 4.8 3.0 2.5 3.0 3.8 4.6 4.9 5.3 6.2 6.0 6.2 6.5 6.5 6.5 6.6 6.5 6.5 6.6 6.6 6.9 6.7 6.9 6.6 6.5 6.5 6.5 6.0 6.5 6.5 6.5 6.5 6.5 6.5 6.5 6.5 6.5 6.5
7.6 7.4 7.3 7.3 7.2 7.1 7.0 6.8 6.2 5.8 4.9 3.6 3.3 4.0 4.2 5.2 4.5 5.4 5.6 6.1 6.5 6.5 6.5 6.5 6.5 6.5 6.5 6.5 6.5 6.5 6.5 6.5 6.5 6.5 6.5 6.5 6.5 6.5 6.5 6.5 6.5 6.5 6.5 6.5 6.5 6.5 6.5
7.5 7.3 7.2 7.1 7.2 7.2 7.1 6.8 6.0 5.6 4.9 4.4 2.9 4.6 2.9 3.7 4.8 5.7 5.9 6.4 6.5 6.5 6.5 6.5 6.5 6.5 6.5 6.5 6.5 6.5 6.5 6.5 6.5 6.5 6.5 6.5 6.5 6.5 6.5 6.5 6.5 6.5 6.5 6.5 6.5 6.5 6.5
8.0 8.0 7.8 7.1 6.9 7.0 7.1 6.8 6.2 5.7 5.2 4.5 4.6 3.1 2.8 3.0 4.9 5.4 6.2 6.5 6.5 6.5 6.5 6.5 6.5 6.5 6.5 6.5 6.5 6.5 6.5 6.5 6.5 6.5 6.5 6.5 6.5 6.5 6.5 6.5 6.5 6.5 6.5 6.5 6.5 6.5 6.5
8.1 8.1 7.8 7.2 7.2 7.2 7.2 7.0 6.5 6.1 5.9 5.7 5.2 4.3 3.8 3.4 4.3 5.4 6.4 6.5 6.5 6.5 6.5 6.5 6.5 6.5 6.5 6.5 6.5 6.5 6.5 6.5 6.5 6.5 6.5 6.5 6.5 6.5 6.5 6.4 6.5 6.5 6.5 6.5 6.5 6.5 6.5
8.2 8.1 8.2 7.7 7.5 7.4 7.4 7.3 7.0 6.5 6.4 5.7 5.7 5.8 4.7 4.3 5.1 5.7 6.5 6.5 6.5 6.9 6.7 6.5 6.5 6.5 6.5 6.5 6.5 6.5 6.5 6.5 6.5 6.5 6.5 6.5 6.5 6.5 6.5 6.5 6.5 6.5 6.5 6.5 6.5 6.5 6.5
8.2 8.3 8.1 8.0 7.8 7.4 7.2 7.2 7.2 7.0 6.8 6.3 6.0 6.5 4.8 4.8 6.4 6.6 6.5 6.5 6.7 6.5 7.0 6.5 6.5 6.5 6.5 6.5 6.5 6.5 6.5 6.5 6.6 6.5 6.5 6.5 6.5 6.5 6.5 6.5 6.5 6.5 6.5 6.5 6.5 6.5 6.5
8.1 8.0 8.2 8.3 8.0 7.6 7.4 6.9 6.7 7.2 7.1 5.1 6.1 6.0 5.6 5.9 6.5 6.5 6.5 6.5 6.6 6.5 6.5 6.5 6.5 6.5 6.5 6.5 6.5 6.5 6.5 6.5 6.7 6.5 6.5 6.5 6.5 6.5 6.5 6.5 6.5 6.5 6.5 6.5 6.5 6.5 6.5
8.2 8.2 8.0 8.3 8.4 8.3 7.8 7.3 6.9 7.1 7.3 6.1 6.1 6.5 6.5 5.5 6.1 6.5 6.5 6.5 6.5 6.9 6.5 6.5 6.5 6.5 6.5 6.5 6.5 6.5 6.5 6.5 6.6 6.6 6.1 6.4 6.5 6.5 6.5 6.5 6.5 6.5 6.5 6.5 6.5 6.5 6.5
7.9 8.2 8.0 8.5 8.4 8.4 8.2 7.7 7.6 7.2 7.5 6.1 6.4 6.6 6.2 6.5 6.5 6.5 6.5 6.5 6.5 6.5 6.5 6.6 6.5 6.5 6.5 6.5 6.5 6.5 6.5 6.5 6.5 6.2 6.5 6.5 6.5 6.5 6.5 6.5 6.5 6.5 6.5 6.5 6.5 6.5 6.5
8.5 8.4 8.4 8.3 8.5 8.4 8.1 7.7 7.5 7.2 6.9 5.5 6.1 6.5 7.1 6.1 6.5 6.5 6.5 6.5 6.5 6.5 6.5 6.5 6.5 6.5 6.5 6.5 6.5 6.5 6.5 6.5 6.5 6.5 6.5 6.5 6.5 6.5 6.5 6.5 6.5 6.5 6.5 6.5 6.5 6.5 6.5
9.3 9.0 8.7 8.5 8.4 8.3 8.1 7.7 7.4 7.5 7.3 4.6 5.8 6.0 6.1 6.5 6.5 6.5 6.5 6.5 6.5 6.5 6.4 6.4 6.4 6.5 6.5 6.5 6.3 6.1 5.9 6.3 6.4 6.5 6.5 6.5 6.5 6.5 6.5 6.5 6.5 6.5 6.5 6.5 6.5 6.5 6.5
8.5 8.7 8.8 8.6 8.8 8.5 8.1 7.6 7.4 7.2 6.8 6.5 7.0 6.4 6.7 6.5 6.5 6.5 6.5 6.5 6.5 6.5 6.5 6.5 6.0 6.5 6.7 7.4 6.4 6.4 6.4 6.7 6.4 6.5 6.5 6.5 6.5 6.5 6.5 6.5 6.5 6.5 6.5 6.5 6.5 6.5 6.5
7.6 8.1 8.3 8.9 8.8 8.4 7.8 7.4 7.7 7.4 7.3 6.6 6.4 6.6 6.7 6.5 6.5 6.5 6.5 6.5 6.5 6.4 6.5 6.5 6.7 6.6 6.2 5.9 6.5 6.5 6.5 6.5 6.5 6.5 6.5 6.5 6.5 6.5 6.5 6.5 6.5 6.5 6.5 6.5 6.5 6.5 6.5
7.8 8.0 8.2 8.6 8.5 7.9 7.5 7.6 7.5 7.6 7.2 6.8 6.3 5.7 6.0 6.5 6.5 6.9 6.5 6.2 6.5 6.5 6.5 6.7 7.1 5.5 5.8 6.5 6.5 6.5 6.5 6.5 6.5 6.5 6.5 6.5 6.5 6.5 6.5 6.5 6.5 6.5 6.5 6.8 6.5 6.5 6.5
7.9 8.1 8.0 7.8 7.7 7.4 7.4 7.4 7.1 6.8 7.1 6.5 5.9 6.0 6.3 6.5 6.2 6.7 6.5 6.6 7.0 6.7 6.5 6.4 6.2 6.1 5.4 6.5 6.5 6.5 6.5 6.5 6.5 6.5 6.5 6.5 6.5 6.5 6.5 6.5 6.5 6.5 6.6 6.7 6.5 6.5 6.8
7.7 7.7 7.5 7.5 7.8 7.7 7.5 7.2 6.8 6.8 7.0 6.4 5.7 5.8 6.4 5.8 5.8 7.4 6.9 6.5 6.8 6.7 6.5 5.3 5.7 6.0 6.5 6.5 6.5 6.5 6.5 6.5 6.5 6.5 6.5 6.5 6.5 6.5 6.5 6.5 6.5 6.8 6.6 6.5 6.3 6.8 6.7
7.3 7.4 7.3 7.3 6.8 7.4 7.5 7.5 6.6 7.0 7.6 6.9 6.7 7.2 6.7 5.4 6.8 7.6 8.0 7.7 8.0 7.7 5.0 5.0 5.5 6.0 4.5 6.5 6.5 6.5 6.5 6.5 6.5 6.5 6.5 6.5 6.5 6.5 6.5 6.5 6.6 7.1 6.6 6.6 6.7 6.6 6.9
Wind_Speed
4 3 5 7 9 10 10 9 11 11 12 12 12 12 13 15 13 12 13 14 14 15 11 9 5 4 6 4 13 11 12 7 4 1 4 7 8 6 9 6 9 12 11 13 15 14 11
5 6 7 7 7 8 11 12 10 11 13 13 13 14 15 14 13 13 14 15 11 14 13 10 5 0 2 10 8 19 21 7 7 6 5 7 6 8 9 11 12 12 19 21 17 19 16
9 8 8 8 9 10 11 12 12 11 13 14 14 15 17 13 13 13 14 14 13 14 14 10 6 3 8 19 8 19 15 7 4 7 7 10 9 6 8 14 11 11 17 19 13 8 8
9 9 10 10 11 11 11 13 13 13 14 14 15 17 17 16 13 14 14 15 12 14 15 10 4 3 8 12 24 18 18 15 12 12 11 6 7 6 4 7 11 13 11 15 5 12 16
12 10 12 11 11 12 10 12 12 14 12 15 15 18 17 17 15 14 12 13 6 15 12 6 2 4 10 15 7 13 13 12 10 10 7 6 4 4 5 5 7 6 13 15 26 13 19
14 13 13 13 14 10 11 13 13 12 14 14 15 17 16 17 17 14 2 19 18 11 3 4 7 5 8 6 7 7 10 9 6 5 2 6 3 4 1 4 8 6 8 14 21 13 13
17 16 15 15 14 14 14 14 11 14 15 15 15 15 15 17 16 17 19 8 3 2 6 12 12 7 2 2 7 8 8 7 6 2 6 7 6 8 14 13 16 18 18 19 21 16 12
18 17 16 14 15 15 14 14 14 15 15 15 16 16 15 14 7 27 8 4 5 3 9 23 24 21 14 7 7 10 2 4 7 8 8 7 15 13 15 16 17 18 17 19 22 18 11
15 17 17 15 15 16 15 15 15 16 16 16 17 16 16 12 25 12 7 8 6 8 5 8 17 13 14 19 17 21 13 13 13 11 12 14 7 10 15 15 13 18 9 17 19 16 14
15 14 16 18 17 17 15 16 15 16 16 17 18 17 16 10 13 6 4 6 8 4 4 7 8 8 13 8 8 24 22 14 8 19 12 13 15 16 16 16 6 17 7 3 12 9 9
15 16 18 19 18 16 14 15 15 16 16 19 21 20 16 29 8 6 6 11 6 3 2 4 6 8 15 14 3 3 18 11 19 16 7 13 9 7 2 2 5 3 7 5 3 7 11
16 16 17 18 17 16 14 13 14 13 16 21 23 22 16 7 3 6 17 7 2 3 11 5 6 6 9 19 5 5 4 2 3 4 8 16 4 4 2 3 2 4 4 3 3 1 9
16 17 18 18 19 17 15 13 10 10 9 14 21 16 19 11 5 18 12 5 4 6 5 6 5 9 12 9 10 9 8 6 6 3 4 2 8 3 5 4 5 5 5 3 3 4 6
18 17 18 19 19 17 15 12 9 5 1 5 14 12 4 1 19 20 6 6 7 13 18 3 5 6 14 11 11 15 13 13 7 6 1 5 5 11 10 13 5 6 8 4 5 2 4
19 18 17 19 17 16 15 15 12 9 7 2 5 2 2 3 17 10 8 12 11 8 11 9 17 11 16 9 11 13 18 16 12 13 9 5 6 5 8 6 10 3 6 2 6 5 4
19 18 16 16 16 15 14 16 17 14 12 5 1 1 1 2 8 4 8 17 12 14 14 7 4 3 11 10 8 5 2 5 16 13 11 2 2 4 5 7 8 7 6 2 2 3 4
19 18 16 14 16 14 13 15 21 20 16 8 1 2 2 5 0 2 9 8 11 17 12 9 5 4 4 3 4 3 3 5 4 6 18 7 4 1 1 5 11 7 9 1 3 3 2
19 18 16 15 14 13 12 13 17 23 18 7 2 4 3 2 5 2 7 6 4 12 16 7 6 8 9 8 8 8 8 5 5 5 15 4 1 5 8 3 7 9 17 14 3 2 2
19 19 18 17 16 14 14 13 11 17 23 4 4 2 2 1 6 7 4 13 13 9 12 6 7 7 3 3 2 2 4 3 1 4 4 7 3 3 1 3 3 5 4 5 6 3 4
19 19 19 17 17 17 16 17 16 17 25 5 4 4 1 1 1 4 7 8 8 12 12 13 5 10 2 5 5 2 3 4 4 3 1 2 2 4 4 3 1 3 10 10 6 3 1
19 19 19 18 17 17 16 18 19 19 25 5 3 3 5 5 9 7 8 5 16 9 7 13 9 8 6 5 6 7 4 2 3 5 1 2 3 3 3 6 6 8 3 5 8 5 5
19 20 18 19 19 19 20 20 23 23 25 4 2 3 5 3 13 18 13 7 16 17 9 16 8 8 10 7 4 2 7 5 4 4 5 1 3 0 3 8 4 5 6 5 4 5 1
21 20 19 21 21 21 22 23 19 23 16 2 3 3 4 2 8 12 17 17 8 13 10 10 9 9 8 8 5 4 6 5 2 6 5 6 3 3 3 7 3 3 2 3 9 13 4
20 23 23 23 23 21 23 22 22 18 19 2 3 2 2 2 4 13 12 20 16 11 8 9 5 6 3 9 4 6 8 6 9 7 5 1 5 2 1 5 4 4 6 9 12 10 10
27 28 27 25 23 22 22 21 22 23 27 5 2 2 1 4 4 8 16 11 18 8 4 7 4 8 9 8 6 3 3 3 2 4 7 8 3 2 3 3 6 6 3 2 4 4 6
25 23 23 22 22 22 22 21 27 23 25 5 2 3 1 1 4 7 7 11 3 4 3 3 8 5 6 4 3 4 4 5 5 5 7 5 3 3 1 3 5 3 7 7 3 2 6
14 14 16 17 17 18 20 19 17 23 30 8 2 2 3 2 3 8 3 5 7 5 3 5 4 4 4 2 2 3 3 7 6 8 5 3 1 3 2 2 2 1 6 3 4 3 7
7 11 12 12 17 16 18 18 13 22 27 7 3 3 0 1 4 6 5 3 4 5 4 6 4 3 2 3 3 2 1 1 3 2 7 4 5 3 3 2 4 6 1 3 6 7 9
13 17 21 20 21 20 20 17 25 23 25 11 2 2 3 2 1 2 8 3 2 3 4 4 6 5 4 3 2 2 4 1 5 3 2 1 4 4 2 2 5 7 7 3 8 10 7
Wind_Direction
251 272 278 284 291 289 292 291 301 302 300 288 294 300 305 305 301 297 294 298 281 227 209 225 237 322 329 236 245 265 238 203 194 207 252 250 271 273 254 265 305 271 274 287 300 302 303
253 256 272 278 282 290 289 289 290 293 293 286 279 287 291 292 294 290 292 287 291 228 194 207 227 337 232 255 268 261 259 171 220 179 256 259 257 278 282 281 280 287 287 282 284 289 292
261 256 260 268 276 277 280 281 278 279 288 288 276 286 288 283 281 294 297 284 284 210 177 195 220 237 250 245 264 295 304 277 255 200 225 253 256 260 308 308 281 302 311 302 285 269 268
249 256 258 263 269 274 276 279 277 278 288 287 288 292 287 285 280 288 292 284 277 189 173 179 204 282 250 254 253 261 258 275 266 252 221 265 302 291 275 289 306 298 292 291 242 260 265
244 247 259 266 264 267 274 279 277 280 283 287 292 288 288 287 277 277 275 286 199 164 154 152 238 208 263 295 223 244 237 239 247 240 220 209 273 246 324 310 303 227 262 260 285 252 261
243 246 256 262 266 268 274 278 277 281 284 285 288 287 288 286 283 266 193 104 111 113 129 210 265 312 255 237 190 242 206 208 219 264 219 203 185 202 227 168 245 256 256 278 287 302 333
243 248 256 266 266 276 281 281 281 284 285 286 289 288 288 287 282 136 114 107 143 199 212 202 187 216 205 277 150 194 169 175 175 192 214 225 187 208 228 225 239 256 266 279 291 308 305
240 243 249 260 270 277 278 284 282 289 286 290 292 290 285 281 184 150 161 196 226 221 281 225 246 234 257 274 286 240 298 219 177 204 216 250 245 227 231 236 249 259 275 288 293 304 315
248 240 244 251 262 273 277 283 287 294 292 293 293 295 287 280 162 163 189 210 320 329 274 247 210 231 230 221 242 240 246 242 225 228 216 225 223 237 248 257 262 258 256 277 283 303 303
239 243 242 247 254 263 274 279 284 289 291 294 294 289 280 269 149 149 212 224 267 308 316 270 205 236 199 207 247 236 224 227 215 230 245 248 237 255 262 272 271 284 217 11 350 357 289
246 248 249 248 248 254 263 273 282 293 300 303 296 287 273 158 140 172 164 170 228 56 330 235 169 149 155 171 244 138 192 197 226 236 197 245 268 247 291 332 38 282 61 45 336 296 305
252 258 258 249 248 258 263 267 281 292 308 304 296 278 227 198 125 156 154 137 102 112 238 271 133 165 145 198 235 114 135 192 123 228 234 254 120 158 227 321 342 56 61 5 306 269 258
259 257 253 256 249 246 250 255 265 283 316 318 305 244 169 158 177 157 135 136 171 201 218 229 189 171 186 190 225 230 220 177 164 119 248 324 254 198 180 235 255 97 69 327 287 212 255
253 259 258 251 246 244 241 236 225 225 114 4 31 132 30 125 152 150 147 179 191 226 228 234 331 215 202 189 212 204 223 246 205 178 94 197 304 223 194 202 178 148 143 186 254 255 319
247 254 258 250 236 233 236 213 202 187 173 184 348 1 48 326 167 164 169 202 209 223 223 234 260 263 273 226 188 205 211 217 227 179 174 210 241 348 157 177 175 171 194 177 290 279 266
247 251 258 244 235 227 229 213 196 189 190 180 109 18 274 90 141 211 196 214 232 233 277 292 244 280 241 241 260 192 82 258 236 227 154 180 308 232 198 146 202 156 153 138 193 262 248
246 246 251 248 242 238 232 223 211 193 204 165 158 169 143 145 277 169 207 223 232 247 266 247 268 270 247 304 297 177 252 315 357 327 179 142 159 212 41 184 191 188 230 134 159 233 285
244 247 246 248 248 238 235 232 223 206 190 141 219 211 148 211 180 235 211 210 211 250 247 257 243 220 237 249 245 258 188 219 327 356 205 162 80 223 218 155 228 224 220 207 180 240 327
239 241 243 244 243 243 237 210 217 217 192 138 173 175 161 150 204 212 240 240 242 236 222 216 222 208 268 264 237 309 109 174 223 42 249 140 188 203 275 10 275 241 217 165 186 153 219
240 236 237 239 244 244 238 226 219 230 205 158 145 173 137 136 286 230 210 225 226 268 243 225 222 243 222 249 208 220 135 197 240 182 247 165 249 197 171 167 287 229 238 216 159 126 197
239 237 237 241 245 246 244 238 224 220 203 161 223 168 180 182 219 215 219 238 219 229 257 212 211 207 183 236 225 225 156 152 234 116 165 109 258 261 312 194 182 286 318 248 215 191 155
236 238 239 241 242 243 245 243 228 213 185 157 187 185 178 282 201 203 219 203 230 221 220 215 189 208 207 221 217 194 140 206 173 144 169 99 278 79 336 269 195 254 313 307 307 319 18
247 244 243 238 239 244 240 240 229 203 167 148 228 268 161 282 194 183 214 221 250 238 226 229 201 205 225 212 117 326 120 161 221 149 162 153 168 115 232 224 307 321 347 359 85 44 19
258 254 248 247 234 239 238 233 203 190 187 185 196 79 305 254 215 201 208 211 233 243 224 260 121 112 109 111 150 80 129 144 147 145 133 219 167 244 203 92 201 121 53 78 97 62 44
258 249 246 243 235 233 232 217 207 191 198 208 104 135 224 248 289 246 220 219 223 252 239 215 206 136 171 101 68 64 16 78 191 190 197 192 173 143 143 178 117 142 51 133 139 84 49
242 239 233 228 229 229 214 223 199 206 214 159 80 95 240 252 232 301 263 227 158 148 144 238 224 151 120 115 127 153 182 178 170 185 218 226 214 133 163 161 208 193 142 121 77 174 76
231 228 223 216 223 204 203 200 214 217 180 159 121 173 241 255 274 309 176 185 140 115 115 227 111 85 82 100 124 163 218 181 172 173 177 162 117 177 232 205 133 248 76 100 88 198 104
234 209 211 221 208 210 208 199 200 163 169 143 137 235 356 252 337 19 53 97 139 144 155 193 74 337 75 125 147 178 184 230 84 198 159 150 168 178 204 174 195 8 312 194 138 104 108
261 251 232 226 217 216 199 195 184 189 166 140 137 216 109 110 292 302 97 350 87 294 135 181 160 155 177 147 197 147 164 51 140 149 51 107 163 136 30 104 75 54 89 74 121 126 109